TAM8049 SACO-SBGR

Flight info

Callsign TAM8049
Flight time N/A
Altitude 35000
Route TREJO1G TREJO UL531 FOZ UM548 KAMIL UZ28 XONUG BUXUKXMOLLE1DXILSXY/10R
Aircraft A320/M-SDE3FGHIRWY/LB1

Departure

Time N/A
Airport Ingeniero Aeronáutico Ambrosio L.V. Taravella International Airport (SACO)

Arrival

Time 2026-05-07 21:42
Airport São Paulo/Guarulhos–Governor André Franco Montoro International Airport (SBGR)
Time Latitude Longitude Altitude Speed Heading
2026-05-07 21:42 -23.42972 -46.46140 2461 ft 0 kts
2026-05-07 21:42 -23.42971 -46.46140 2461 ft 0 kts
2026-05-07 21:43 -23.42967 -46.46140 2461 ft 3 kts
2026-05-07 21:43 -23.42896 -46.46157 2465 ft 11 kts 343°
2026-05-07 21:43 -23.42821 -46.46181 2465 ft 12 kts 343°
2026-05-07 21:43 -23.42736 -46.46208 2462 ft 14 kts 343°
2026-05-07 21:44 -23.42639 -46.46243 2461 ft 15 kts 329°
2026-05-07 21:44 -23.42628 -46.46350 2461 ft 15 kts 252°
2026-05-07 21:44 -23.42669 -46.46470 2464 ft 19 kts 253°
2026-05-07 21:44 -23.42704 -46.46615 2461 ft 21 kts 255°
2026-05-07 21:45 -23.42746 -46.46772 2463 ft 22 kts 251°
2026-05-07 21:45 -23.42793 -46.46942 2461 ft 24 kts 254°
2026-05-07 21:45 -23.42842 -46.47126 2464 ft 26 kts 252°
2026-05-07 21:45 -23.42897 -46.47321 2464 ft 27 kts 253°
2026-05-07 21:46 -23.42912 -46.47468 2463 ft 17 kts 311°
2026-05-07 21:46 -23.42798 -46.47521 2461 ft 19 kts 344°
2026-05-07 21:46 -23.42671 -46.47562 2465 ft 18 kts 343°
2026-05-07 21:46 -23.42566 -46.47589 2462 ft 13 kts 17°
2026-05-07 21:47 -23.42539 -46.47511 2461 ft 7 kts 74°
2026-05-07 21:47 -23.42535 -46.47494 2461 ft 0 kts 75°